{"data":{"norad_id":57928,"intl_designator":"2023-147R","name":"STARLINK-30448","alt_names":[],"object_type":"PAYLOAD","status":"ACTIVE","operator":null,"country":"US","launch_date":"2023-09-24","launch_site_code":"AFETR","launch_vehicle":null,"mission":null,"orbit_class":"UNKNOWN","rcs_meters":null,"size_class":null,"mass_kg":null,"dimensions":null,"purposes":["comms"],"wikipedia_slug":null,"has_3d_model":false,"image_url":null,"decayed_at":null,"tle_current":{"epoch":"2026-05-25T00:51:57.076992Z","epoch_age_seconds":86136,"freshness":"FRESH","line1":"1 57928U 23147R   26145.03607728  .00000067  00000+0  11949-4 0  9999","line2":"2 57928  43.0023 257.4956 0001081 301.0503  59.0243 15.27575799148233","mean_motion":15.27575799,"eccentricity":0.0001081,"inclination_deg":43.0023,"raan_deg":257.4956,"arg_perigee_deg":301.0503,"mean_anomaly_deg":59.0243,"bstar":1.1949e-5,"rev_number":14823,"period_min":94.267007957489,"perigee_km":482.31997979697,"apogee_km":483.80337095059,"semimajor_km":6861.1986753738,"source":"CELESTRAK","updated_at":"2026-05-25T13:38:18.458883Z"}}}